Overview Statistics Trail Chart Weather Telemetry Raw packets
 

This is the latest recevied weather packets stored in our database for station/object PY4BN-13. If no packets are shown the sender has not sent any weather packets the latest 10 day(s).

<< 30 31 32 33 34 35 36 >>
Time Temp. Humidity Pressure Rain* Wind** Luminosity Snow
1777128300 26.11° C 53% 906.5 hPa - - - -
1777127400 26.11° C 55% 906.8 hPa - - - -
1777126500 25.56° C 56% 907.1 hPa - - - -
1777125600 26.11° C 55% 907.2 hPa - - - -
1777124700 25.56° C 56% 907.4 hPa - - - -
1777123800 25.56° C 56% 907.6 hPa - - - -
1777122900 26.11° C 53% 907.8 hPa - - - -
1777122000 25.56° C 58% 908 hPa - - - -
1777121100 25.56° C 59% 908 hPa - - - -
1777120200 25.56° C 59% 908 hPa - - - -
1777119300 25.56° C 58% 907.9 hPa - - - -
1777118400 25.56° C 55% 907.9 hPa - - - -
1777117500 25.56° C 53% 907.8 hPa - - - -
1777116600 25.56° C 54% 907.7 hPa - - - -
1777115700 25.56° C 56% 907.7 hPa - - - -
1777114800 25.56° C 56% 907.6 hPa - - - -
1777113900 25° C 56% 907.5 hPa - - - -
1777113000 25° C 56% 907.4 hPa - - - -
1777112100 25° C 55% 907.3 hPa - - - -
1777111200 25° C 54% 907.2 hPa - - - -
1777110300 25° C 55% 907 hPa - - - -
1777109400 25° C 55% 906.9 hPa - - - -
1777108500 25° C 55% 906.8 hPa - - - -
1777107600 25° C 55% 906.6 hPa - - - -
1777106700 25° C 55% 906.5 hPa - - - -

* Rain since midnight (hover to see other rain measurements)
** Current wind speed in m/s (hover to see current wind gust speed)